Flag for Germany Weather past 2 weeks in Dreieich, Hesse, Germany

Now
65 °F

Passing clouds.


Feels Like: 65 °F
Forecast: 65 / 82 °F
Wind: 1 mph from Northeast

Location: Frankfurt / M-Flughafen

Current Time: Aug 3, 2015 at 2:31:37 AM

Latest Report: Aug 3, 2015 at 2:00 AM


Visibility: 28 mi

Pressure: 30.03 "Hg

Humidity: 57%

Dew point: 50 °F

Location of DreieichLocation

Historic Weather in Dreieich — Graph

°F

Dreieich temperature yesterday

Maximum temperature yesterday: 86 °F (at 6:00 PM)
Minimum temperature yesterday: 55 °F (at 7:00 AM)
Average temperature yesterday: 75 °F

Past Weeks' High & Low Weather Summary

 TemperatureHumidityPressure
High91 °F (Jul 22, 2:00 PM)98% (Jul 25, 5:00 AM)30.14 "Hg (Jul 25, 5:00 AM)
Low47 °F (Jul 30, 4:00 AM)20% (Aug 2, 5:00 PM)29.63 "Hg (Jul 27, 8:00 AM)
Average69 °F57%29.90 "Hg
* Reported Jul 19 1:00 AM — Aug 3 1:00 AM, Dreieich, Weather by CustomWeather, © 2015

Note: Actual official high and low records may vary slightly from our data, if they occured in-between our weather recording intervals... More about our weather records

Advertising

Dreieich weather history for previous 24 hours

 ConditionsComfort  
Time TempWeatherWind HumidityBarometerVisibility
1:00 AM
Mon, Aug 3
69 °FPassing clouds.2 mph50%30.04 "Hg28 mi
10:00 PM
Sun, Aug 2
72 °FPassing clouds.2 mph42%30.03 "Hg31 mi
9:00 PM78 °FPartly sunny.1 mph31%30.02 "Hg31 mi
8:00 PM85 °FPartly sunny.1 mph23%30.01 "Hg37 mi
7:00 PM85 °FScattered clouds.2 mph21%30.02 "Hg37 mi
6:00 PM86 °FScattered clouds.2 mph20%30.02 "Hg37 mi
5:00 PM85 °FScattered clouds.3 mph20%30.03 "Hg37 mi
4:00 PM85 °FScattered clouds.3 mph22%30.04 "Hg37 mi
3:00 PM84 °FScattered clouds.3 mph23%30.06 "Hg37 mi
2:00 PM83 °FScattered clouds.2 mph26%30.08 "Hg37 mi
1:00 PM81 °FScattered clouds.2 mph29%30.09 "Hg37 mi
12:00 PM77 °FPassing clouds.3 mph32%30.11 "Hg37 mi
11:00 AM74 °FPassing clouds.2 mph40%30.11 "Hg34 mi
10:00 AM71 °FScattered clouds.3 mph46%30.11 "Hg34 mi
9:00 AM69 °FScattered clouds.5 mph50%30.10 "Hg31 mi
8:00 AM64 °FPassing clouds.2 mph65%30.10 "Hg31 mi
7:00 AM55 °FPassing clouds.1 mph90%30.09 "Hg31 mi
4:00 AM57 °FOvercast.1 mph83%30.05 "Hg31 mi
Weather by CustomWeather, © 2015

See weather overviewHow to use our weather pages